| time (UTC) | temp C | wind direction | speed KPH | gust KPH | rain 1hr cm | rain 24hr cm | rain mn cm | humidity % | barometer mb |
| 20260508100051 | 14 | 0 | 0.0 | 4.8 | 0.00 | 0.97 | 0.05 | 92 | 1013.8 |
| 20260508094600 | 13 | 0 | 0.0 | 6.4 | 0.00 | 0.94 | 0.03 | 93 | 1014.3 |
| 20260508093055 | 13 | 305 | 3.2 | 11.3 | 0.00 | 0.94 | 0.03 | 93 | 1014.6 |
| 20260508091558 | 13 | 263 | 4.8 | 19.3 | 0.00 | 0.94 | 0.03 | 93 | 1014.7 |
| 20260508090104 | 13 | 271 | 0.0 | 0.0 | 0.00 | 0.94 | 0.03 | 93 | 1014.1 |
| 20260508084553 | 13 | 0 | 0.0 | 6.4 | 0.00 | 0.94 | 0.03 | 93 | 1014.1 |
| 20260508083055 | 13 | 0 | 0.0 | 4.8 | 0.00 | 0.94 | 0.03 | 93 | 1013.9 |
| 20260508081606 | 13 | 222 | 4.8 | 8.0 | 0.00 | 0.94 | 0.03 | 93 | 1014.1 |
| 20260508080051 | 13 | 318 | 0.0 | 3.2 | 0.00 | 0.94 | 0.03 | 93 | 1013.6 |
| 20260508074548 | 13 | 0 | 1.6 | 4.8 | 0.00 | 0.94 | 0.03 | 93 | 1013.4 |
| 20260508073100 | 13 | 281 | 1.6 | 4.8 | 0.00 | 0.94 | 0.03 | 94 | 1013.1 |
| 20260508071613 | 13 | 288 | 0.0 | 4.8 | 0.00 | 0.94 | 0.03 | 95 | 1013.0 |
| 20260508064556 | 12 | 304 | 1.6 | 4.8 | 0.00 | 0.94 | 0.03 | 95 | 1012.8 |
| 20260508063054 | 12 | 302 | 0.0 | 3.2 | 0.00 | 0.94 | 0.03 | 96 | 1012.8 |
| 20260508061556 | 11 | 328 | 0.0 | 3.2 | 0.00 | 0.94 | 0.03 | 95 | 1012.4 |
| 20260508060052 | 11 | 300 | 1.6 | 4.8 | 0.00 | 0.94 | 0.03 | 96 | 1012.2 |
| 20260508054604 | 11 | 297 | 1.6 | 6.4 | 0.00 | 0.94 | 0.03 | 95 | 1011.9 |
| 20260508053052 | 11 | 283 | 0.0 | 4.8 | 0.00 | 0.94 | 0.03 | 95 | 1012.2 |
| 20260508051547 | 11 | 290 | 3.2 | 11.3 | 0.00 | 0.94 | 0.03 | 95 | 1012.0 |
| 20260508050051 | 11 | 288 | 3.2 | 8.0 | 0.00 | 0.94 | 0.03 | 95 | 1011.9 |
| 20260508044557 | 11 | 272 | 3.2 | 4.8 | 0.00 | 0.94 | 0.03 | 95 | 1011.6 |
| 20260508043054 | 11 | 283 | 1.6 | 6.4 | 0.00 | 0.94 | 0.03 | 95 | 1011.7 |
| 20260508041557 | 11 | 290 | 1.6 | 4.8 | 0.00 | 0.94 | 0.03 | 95 | 1011.8 |
| 20260508040059 | 11 | 278 | 1.6 | 4.8 | 0.00 | 0.94 | 0.03 | 95 | 1011.5 |
| 20260508034552 | 12 | 290 | 1.6 | 6.4 | 0.00 | 0.94 | 0.00 | 95 | 1011.2 |
| 20260508033112 | 11 | 0 | 0.0 | 3.2 | 0.00 | 0.94 | 0.00 | 96 | 1011.3 |
| 20260508031549 | 11 | 312 | 0.0 | 6.4 | 0.00 | 0.94 | 0.00 | 95 | 1011.6 |
| 20260508030101 | 11 | 325 | 1.6 | 3.2 | 0.00 | 0.94 | 0.00 | 95 | 1011.9 |
| 20260508024615 | 11 | 322 | 1.6 | 4.8 | 0.00 | 0.94 | 0.00 | 95 | 1011.8 |
| 20260508023051 | 12 | 319 | 1.6 | 6.4 | 0.00 | 0.94 | 0.00 | 95 | 1012.0 |
| 20260508021548 | 11 | 303 | 1.6 | 4.8 | 0.00 | 0.94 | 0.00 | 95 | 1011.9 |
| 20260508020111 | 11 | 293 | 1.6 | 6.4 | 0.00 | 0.94 | 0.00 | 95 | 1012.0 |
| 20260508014556 | 12 | 301 | 1.6 | 6.4 | 0.00 | 0.94 | 0.00 | 95 | 1012.1 |
| 20260508013104 | 12 | 317 | 0.0 | 4.8 | 0.00 | 0.94 | 0.00 | 95 | 1012.2 |
| 20260508011559 | 12 | 269 | 4.8 | 4.8 | 0.00 | 0.94 | 0.00 | 95 | 1012.3 |
| 20260508010105 | 12 | 304 | 1.6 | 4.8 | 0.00 | 0.94 | 0.00 | 95 | 1012.5 |
| 20260508004552 | 12 | 302 | 1.6 | 3.2 | 0.00 | 0.94 | 0.00 | 95 | 1012.8 |
| 20260508003050 | 12 | 320 | 1.6 | 3.2 | 0.00 | 0.94 | 0.00 | 95 | 1012.9 |
| 20260508001556 | 12 | 300 | 0.0 | 3.2 | 0.00 | 0.94 | 0.00 | 95 | 1013.0 |
| 20260508000057 | 12 | 297 | 1.6 | 4.8 | 0.00 | 0.94 | 0.00 | 95 | 1013.3 |
| 20260507234554 | 12 | 317 | 1.6 | 4.8 | 0.00 | 0.94 | 0.00 | 95 | 1013.4 |
| 20260507233051 | 12 | 297 | 1.6 | 4.8 | 0.00 | 0.94 | 0.00 | 95 | 1013.5 |
| 20260507231555 | 12 | 283 | 0.0 | 4.8 | 0.00 | 0.94 | 0.00 | 94 | 1013.6 |
| 20260507230055 | 12 | 296 | 1.6 | 4.8 | 0.00 | 0.94 | 0.00 | 94 | 1013.6 |
| 20260507224552 | 12 | 297 | 0.0 | 4.8 | 0.00 | 0.94 | 0.00 | 94 | 1013.5 |
| 20260507223053 | 13 | 0 | 0.0 | 0.0 | 0.00 | 0.94 | 0.00 | 94 | 1013.5 |
| 20260507221548 | 13 | 0 | 0.0 | 0.0 | 0.00 | 0.91 | 0.00 | 94 | 1013.3 |
| 20260507220051 | 13 | 0 | 0.0 | 0.0 | 0.00 | 0.91 | 0.00 | 94 | 1013.2 |
| 20260507214550 | 13 | 0 | 0.0 | 3.2 | 0.00 | 0.91 | 0.91 | 93 | 1013.1 |
| 20260507213059 | 13 | 29 | 3.2 | 6.4 | 0.00 | 0.91 | 0.91 | 93 | 1013.2 |
| 20260507211555 | 13 | 38 | 4.8 | 8.0 | 0.00 | 0.91 | 0.91 | 94 | 1013.0 |
| 20260507210057 | 13 | 40 | 4.8 | 6.4 | 0.00 | 0.91 | 0.91 | 94 | 1013.1 |
| 20260507204550 | 13 | 0 | 1.6 | 8.0 | 0.00 | 0.91 | 0.91 | 94 | 1013.2 |
| 20260507203053 | 13 | 30 | 6.4 | 11.3 | 0.00 | 0.91 | 0.91 | 94 | 1013.2 |
| 20260507201552 | 13 | 0 | 0.0 | 3.2 | 0.00 | 0.91 | 0.91 | 95 | 1013.0 |
| 20260507200052 | 13 | 337 | 1.6 | 4.8 | 0.00 | 0.91 | 0.91 | 94 | 1013.0 |
| 20260507194607 | 13 | 358 | 3.2 | 8.0 | 0.00 | 0.91 | 0.91 | 94 | 1012.8 |
| 20260507193052 | 13 | 28 | 4.8 | 9.7 | 0.00 | 0.91 | 0.91 | 94 | 1012.5 |
| 20260507191551 | 13 | 17 | 6.4 | 12.9 | 0.05 | 0.91 | 0.91 | 94 | 1012.2 |
| 20260507190051 | 13 | 51 | 4.8 | 16.1 | 0.18 | 0.91 | 0.91 | 94 | 1011.8 |
| 20260507184554 | 13 | 71 | 9.7 | 17.7 | 0.30 | 0.91 | 0.91 | 94 | 1011.8 |
| 20260507183055 | 13 | 47 | 9.7 | 19.3 | 0.58 | 0.91 | 0.91 | 94 | 1011.6 |
| 20260507181555 | 13 | 41 | 9.7 | 17.7 | 0.74 | 0.84 | 0.84 | 94 | 1011.5 |
| 20260507180057 | 13 | 11 | 6.4 | 14.5 | 0.66 | 0.74 | 0.74 | 93 | 1011.6 |
| 20260507174554 | 13 | 63 | 6.4 | 11.3 | 0.56 | 0.58 | 0.58 | 92 | 1011.7 |
| 20260507173103 | 15 | 314 | 3.2 | 8.0 | 0.28 | 0.30 | 0.30 | 92 | 1011.5 |
| 20260507171555 | 15 | 316 | 1.6 | 6.4 | 0.08 | 0.10 | 0.10 | 88 | 1011.3 |
| 20260507170055 | 16 | 333 | 1.6 | 9.7 | 0.03 | 0.05 | 0.05 | 85 | 1011.3 |
| 20260507164551 | 16 | 0 | 0.0 | 6.4 | 0.00 | 0.00 | 0.00 | 85 | 1011.0 |
| 20260507163058 | 16 | 89 | 3.2 | 16.1 | 0.00 | 0.00 | 0.00 | 86 | 1010.6 |
| 20260507161557 | 16 | 122 | 8.0 | 16.1 | 0.00 | 0.00 | 0.00 | 86 | 1010.4 |
| 20260507160053 | 16 | 115 | 8.0 | 19.3 | 0.00 | 0.00 | 0.00 | 88 | 1010.6 |
| 20260507154554 | 17 | 150 | 9.7 | 19.3 | 0.00 | 0.00 | 0.00 | 87 | 1010.4 |
| 20260507153102 | 17 | 134 | 6.4 | 12.9 | 0.00 | 0.00 | 0.00 | 86 | 1010.3 |
| 20260507151555 | 17 | 106 | 9.7 | 14.5 | 0.00 | 0.00 | 0.00 | 85 | 1010.5 |
| 20260507150105 | 18 | 97 | 6.4 | 14.5 | 0.00 | 0.00 | 0.00 | 85 | 1010.5 |
| 20260507144552 | 18 | 130 | 6.4 | 12.9 | 0.00 | 0.00 | 0.00 | 85 | 1010.3 |
| 20260507143103 | 18 | 78 | 6.4 | 12.9 | 0.00 | 0.00 | 0.00 | 84 | 1010.3 |
| 20260507141551 | 18 | 86 | 9.7 | 16.1 | 0.00 | 0.00 | 0.00 | 84 | 1010.3 |
| 20260507134550 | 18 | 108 | 8.0 | 14.5 | 0.00 | 0.00 | 0.00 | 80 | 1010.6 |
| 20260507133057 | 18 | 89 | 4.8 | 19.3 | 0.00 | 0.00 | 0.00 | 81 | 1010.6 |
| 20260507131554 | 18 | 127 | 6.4 | 20.9 | 0.00 | 0.00 | 0.00 | 82 | 1010.6 |
| 20260507130105 | 18 | 103 | 8.0 | 17.7 | 0.00 | 0.00 | 0.00 | 80 | 1010.8 |
| 20260507124600 | 18 | 115 | 12.9 | 24.1 | 0.00 | 0.00 | 0.00 | 77 | 1011.2 |
| 20260507123053 | 19 | 81 | 11.3 | 19.3 | 0.00 | 0.00 | 0.00 | 72 | 1011.2 |
| 20260507121554 | 19 | 75 | 9.7 | 22.5 | 0.00 | 0.00 | 0.00 | 74 | 1011.1 |
| 20260507120047 | 19 | 94 | 9.7 | 24.1 | 0.00 | 0.00 | 0.00 | 73 | 1011.1 |
| 20260507114551 | 19 | 84 | 16.1 | 25.7 | 0.00 | 0.00 | 0.00 | 74 | 1011.1 |
| 20260507113059 | 18 | 54 | 14.5 | 27.4 | 0.00 | 0.00 | 0.00 | 74 | 1011.2 |
| 20260507111548 | 19 | 88 | 12.9 | 24.1 | 0.00 | 0.00 | 0.00 | 72 | 1011.5 |
| 20260507110057 | 19 | 25 | 17.7 | 25.7 | 0.00 | 0.00 | 0.00 | 73 | 1011.5 |
| 20260507104555 | 19 | 71 | 11.3 | 24.1 | 0.00 | 0.00 | 0.00 | 75 | 1011.7 |
| 20260507103115 | 18 | 66 | 14.5 | 25.7 | 0.00 | 0.00 | 0.00 | 76 | 1011.6 |
| 20260507101553 | 18 | 53 | 16.1 | 25.7 | 0.00 | 0.00 | 0.00 | 75 | 1011.8 |